GEFSSGP_prec_meanprecacc_300.txt.gz
Total_Precipitation_Accumulation
0.06 0.22 0.53 0.79 1.19 1.64 1.54 1.05 0.84 0.60 0.49 0.51 0.41 0.40 0.51 0.79 1.23 2.19 2.35 1.80 1.24 1.18 1.38 1.57 1.62 1.59 1.51 1.50 1.68 1.76 1.76 1.80 1.86 2.01 2.10 2.18 2.20 2.07 1.96 1.98 2.02 2.14 2.16 2.19 2.32 2.37 2.37 2.34 2.37
0.12 0.29 0.54 0.89 1.38 1.79 1.48 0.83 0.57 0.46 0.41 0.44 0.40 0.42 0.63 0.73 0.79 1.35 1.68 1.48 1.00 0.94 1.12 1.27 1.42 1.37 1.31 1.35 1.41 1.53 1.63 1.62 1.74 2.01 2.10 2.17 2.11 2.01 1.95 1.88 1.93 2.09 2.25 2.35 2.32 2.20 2.09 1.95 1.93
0.18 0.30 0.51 0.86 1.14 1.31 1.10 0.68 0.45 0.36 0.41 0.55 0.57 0.49 0.77 0.88 0.83 1.22 1.41 1.01 0.80 0.90 1.13 1.25 1.22 1.14 1.07 1.03 1.11 1.30 1.45 1.60 1.73 1.87 1.91 1.96 1.92 1.93 1.84 1.78 1.90 2.14 2.54 2.63 2.36 2.04 1.83 1.73 1.63
0.19 0.35 0.43 0.63 0.72 0.64 0.59 0.49 0.38 0.35 0.38 0.49 0.60 0.66 0.90 0.85 0.78 1.01 1.03 0.79 0.69 0.84 0.92 0.97 1.04 0.97 0.93 0.92 1.00 1.12 1.25 1.45 1.64 1.70 1.76 1.88 1.95 1.90 1.80 1.86 2.02 2.30 2.60 2.53 2.27 1.97 1.72 1.63 1.51
0.23 0.31 0.42 0.59 0.63 0.57 0.46 0.41 0.36 0.43 0.46 0.54 0.61 0.89 1.12 1.02 0.83 0.85 0.84 0.70 0.54 0.58 0.65 0.70 0.83 0.82 0.85 0.84 0.92 1.07 1.26 1.42 1.44 1.56 1.88 2.03 2.00 1.96 1.98 2.05 2.24 2.35 2.38 2.26 2.17 1.92 1.70 1.57 1.52
0.19 0.23 0.36 0.52 0.57 0.53 0.44 0.35 0.29 0.37 0.51 0.67 0.75 0.94 1.31 1.26 1.00 0.88 0.69 0.65 0.51 0.45 0.58 0.71 0.82 0.82 0.81 0.82 0.94 1.12 1.29 1.38 1.43 1.58 1.80 1.93 1.91 1.95 2.04 2.14 2.30 2.27 2.24 2.11 1.92 1.71 1.60 1.56 1.53
0.18 0.18 0.23 0.36 0.44 0.43 0.41 0.36 0.30 0.34 0.52 0.70 0.74 1.07 1.46 1.57 1.20 0.89 0.75 0.75 0.75 0.65 0.71 0.87 0.93 0.97 1.03 1.12 1.18 1.30 1.41 1.50 1.59 1.66 1.69 1.74 1.82 1.90 2.02 2.17 2.26 2.25 2.12 1.86 1.76 1.71 1.60 1.54 1.50
0.14 0.15 0.18 0.23 0.28 0.41 0.38 0.30 0.28 0.37 0.42 0.51 0.64 0.98 1.36 1.39 1.22 1.10 1.20 1.18 1.23 1.03 0.92 0.95 1.10 1.25 1.22 1.25 1.41 1.49 1.54 1.56 1.58 1.59 1.67 1.77 1.94 2.01 2.15 2.25 2.44 2.47 2.22 1.86 1.89 1.80 1.57 1.52 1.54
0.08 0.19 0.25 0.19 0.20 0.26 0.24 0.28 0.27 0.25 0.31 0.40 0.55 0.79 1.05 1.02 1.09 1.40 1.71 1.58 1.56 1.38 1.13 1.01 0.98 1.14 1.30 1.33 1.38 1.55 1.62 1.64 1.72 1.86 1.97 2.13 2.31 2.30 2.61 2.69 2.92 2.89 2.52 2.22 2.16 2.02 1.80 1.61 1.57
0.05 0.15 0.16 0.11 0.10 0.13 0.16 0.22 0.24 0.28 0.51 0.77 0.91 1.00 1.12 1.38 1.47 1.62 1.71 1.62 1.60 1.58 1.36 1.23 1.15 1.12 1.24 1.29 1.51 1.84 1.77 1.86 2.04 2.35 2.46 2.67 2.80 2.83 2.58 3.08 3.46 3.39 3.15 2.80 2.68 2.54 2.13 1.77 1.68
0.04 0.09 0.09 0.09 0.07 0.08 0.13 0.15 0.19 0.30 0.67 1.04 1.28 1.37 1.43 1.69 1.94 1.97 2.02 2.03 1.94 1.88 1.65 1.43 1.37 1.41 1.40 1.54 1.54 1.79 2.07 2.31 2.41 2.48 2.56 2.78 2.75 2.69 2.75 3.20 3.48 3.45 3.28 3.16 3.23 3.00 2.51 2.43 2.53
0.02 0.02 0.04 0.06 0.04 0.05 0.08 0.11 0.20 0.43 0.84 1.00 1.24 1.44 1.50 1.91 2.03 2.04 2.48 2.58 2.18 1.93 1.93 1.83 1.76 1.75 1.78 1.64 1.80 1.85 1.96 2.18 2.38 2.57 2.56 2.71 3.07 3.09 3.16 3.39 3.33 3.39 3.38 3.63 3.39 3.44 3.21 2.89 2.63
0.01 0.02 0.03 0.04 0.04 0.04 0.05 0.11 0.21 0.42 0.65 0.77 0.98 1.16 1.21 1.71 2.05 2.30 2.81 2.78 2.49 2.32 2.25 2.12 2.08 2.13 2.12 2.12 2.15 1.97 2.07 2.20 2.33 2.53 2.71 2.74 3.00 3.16 3.31 3.43 3.36 2.98 2.94 3.21 3.46 3.34 3.44 3.38 3.14
0.01 0.03 0.05 0.04 0.05 0.05 0.06 0.15 0.26 0.48 0.61 0.85 0.86 1.03 1.25 1.65 1.95 2.38 2.72 2.98 2.85 2.64 2.49 2.32 2.29 2.38 2.45 2.45 2.53 2.48 2.25 2.39 2.37 2.64 2.70 2.76 2.89 3.14 3.41 3.51 3.45 3.07 2.91 3.13 3.32 3.22 3.52 3.44 3.38
0.03 0.07 0.11 0.09 0.07 0.08 0.10 0.30 0.53 0.62 0.72 0.89 1.03 1.13 1.35 1.72 2.22 2.50 2.76 3.07 3.12 3.07 2.91 2.68 2.58 2.74 2.96 3.08 3.07 2.91 2.70 2.52 2.54 2.68 2.72 2.82 2.85 3.13 3.19 3.21 3.24 3.21 3.00 3.15 3.25 3.26 3.39 3.23 3.06
0.06 0.09 0.15 0.16 0.11 0.11 0.18 0.62 0.76 0.63 0.80 1.01 1.09 1.32 1.62 2.01 2.45 2.95 3.12 3.03 3.07 3.22 3.18 2.89 2.68 3.15 3.51 3.59 3.59 3.38 3.11 2.76 2.69 2.74 2.82 2.92 3.00 3.13 3.31 3.08 3.02 3.32 3.21 3.34 3.65 3.58 3.64 3.70 3.54
0.09 0.16 0.15 0.19 0.15 0.15 0.27 0.77 0.73 0.55 0.68 0.88 1.10 1.33 1.75 2.27 2.63 2.81 2.88 3.09 3.23 3.32 3.30 3.25 3.35 3.49 3.65 3.74 3.85 3.62 3.38 3.17 2.91 2.81 2.80 2.89 3.03 3.14 3.49 3.37 3.40 3.42 3.45 3.49 3.15 3.70 4.00 4.05 3.88
0.10 0.12 0.17 0.19 0.17 0.20 0.30 0.57 0.65 0.65 0.82 0.94 1.24 1.45 1.60 1.99 2.45 2.57 2.71 3.17 3.27 3.45 3.59 3.53 3.64 3.81 4.09 4.29 4.47 4.10 3.72 3.45 3.17 2.97 3.02 3.06 3.27 3.40 3.68 3.58 3.52 3.44 3.58 3.58 3.59 4.04 4.01 3.75 3.77
0.04 0.10 0.21 0.20 0.18 0.25 0.34 0.55 0.75 0.83 0.99 1.29 1.50 1.50 1.46 1.76 2.25 2.65 2.96 3.11 3.45 3.66 3.83 3.84 4.07 4.48 4.82 4.68 4.36 4.17 3.92 3.70 3.47 3.20 3.09 3.11 3.10 3.30 3.66 3.51 3.76 3.66 3.53 3.47 3.45 3.79 3.90 3.63 3.81
0.04 0.08 0.18 0.20 0.20 0.31 0.45 0.68 0.85 1.05 1.27 1.36 1.29 1.28 1.43 1.81 2.32 2.70 2.99 3.15 3.42 3.69 4.12 4.25 4.46 4.82 4.95 4.82 4.69 4.53 4.39 3.98 3.84 3.69 3.51 3.14 2.95 3.06 3.12 3.46 3.28 3.36 3.50 3.43 3.55 3.86 3.77 3.41 3.87
0.05 0.10 0.16 0.17 0.25 0.41 0.53 0.96 1.13 1.29 1.41 1.39 1.32 1.53 1.54 1.63 2.05 2.34 2.46 2.66 2.84 2.99 3.24 3.54 4.04 4.55 4.75 4.82 4.73 4.68 4.69 4.22 3.95 3.80 3.62 3.24 2.96 2.84 3.00 3.18 3.26 3.32 3.21 3.32 3.57 3.65 3.71 3.61 3.73
0.07 0.08 0.09 0.13 0.25 0.53 0.62 1.23 1.42 1.62 1.72 1.59 1.52 1.46 1.45 1.69 2.00 2.02 1.85 2.01 2.28 2.27 2.58 3.01 3.47 3.83 4.06 4.15 4.16 4.21 4.16 4.07 3.98 3.84 3.46 3.21 2.95 2.81 2.88 3.02 3.11 3.18 3.01 3.14 2.99 3.14 3.64 3.75 3.57
0.06 0.07 0.10 0.15 0.28 0.52 0.55 0.92 1.45 1.81 1.99 1.61 1.51 1.38 1.45 1.67 1.71 1.67 1.68 1.80 1.96 2.12 2.43 2.75 3.08 3.38 3.54 3.65 3.73 3.84 3.73 3.75 3.65 3.47 3.26 3.05 2.87 2.71 2.50 2.63 2.87 2.96 2.85 2.78 2.79 3.06 3.20 3.18 3.20
0.06 0.10 0.19 0.27 0.49 0.87 0.71 0.83 1.39 1.75 1.61 1.40 1.33 1.12 1.23 1.42 1.51 1.56 1.65 1.78 1.90 2.20 2.55 2.85 3.09 3.31 3.38 3.17 3.08 3.10 3.16 3.22 3.17 3.02 2.85 2.63 2.56 2.46 2.29 2.34 2.58 2.69 2.68 2.64 2.62 2.69 2.76 2.83 2.87
0.09 0.20 0.66 1.09 1.42 1.32 0.81 0.92 1.51 1.40 1.06 0.99 1.07 1.05 1.05 1.09 1.23 1.35 1.54 1.74 1.92 2.03 2.13 2.57 3.00 3.17 3.08 2.83 2.64 2.57 2.71 2.83 2.75 2.64 2.56 2.47 2.33 2.24 2.22 2.25 2.38 2.40 2.40 2.37 2.44 2.50 2.55 2.72 2.82
0.14 0.26 0.75 1.05 1.15 1.13 0.91 1.31 1.80 1.39 0.95 0.81 0.91 0.90 0.79 0.75 0.73 0.81 0.99 1.11 1.26 1.31 1.33 1.51 1.79 2.03 2.11 2.01 2.03 2.09 2.13 2.21 2.21 2.40 2.25 2.23 2.17 2.05 2.09 2.06 2.04 2.06 2.08 2.07 2.38 2.42 2.54 2.72 2.80
0.25 0.30 0.32 0.55 0.76 1.16 1.17 1.37 1.47 1.20 0.95 0.90 0.98 0.89 0.71 0.67 0.63 0.69 0.79 0.85 0.95 0.98 1.02 1.16 1.41 1.65 1.69 1.71 1.76 1.81 1.82 1.87 1.90 1.96 1.92 1.89 1.95 1.90 1.91 1.89 2.00 1.98 2.03 2.16 2.36 2.37 2.44 2.71 2.76
0.22 0.30 0.46 0.73 0.97 1.13 1.22 1.59 1.75 1.56 1.29 1.12 1.07 0.94 0.72 0.60 0.58 0.65 0.76 0.80 0.90 1.01 1.16 1.28 1.39 1.50 1.50 1.51 1.52 1.48 1.58 1.60 1.65 1.65 1.59 1.61 1.68 1.70 1.74 1.77 1.83 1.88 1.91 2.05 2.27 2.27 2.34 2.49 2.54
0.26 0.33 0.49 0.68 0.74 0.96 1.34 1.50 1.26 1.23 1.22 1.28 1.23 1.02 0.78 0.60 0.54 0.60 0.72 0.79 0.86 0.99 1.13 1.27 1.36 1.45 1.43 1.39 1.46 1.52 1.53 1.57 1.55 1.52 1.45 1.51 1.59 1.63 1.65 1.72 1.82 1.85 1.87 2.01 2.16 2.15 2.27 2.26 2.27
0.24 0.35 0.50 0.76 0.81 0.84 1.01 1.17 0.79 0.82 0.94 1.03 1.04 0.83 0.65 0.58 0.56 0.64 0.75 0.80 0.94 1.01 1.07 1.10 1.20 1.33 1.34 1.36 1.49 1.68 1.65 1.65 1.62 1.49 1.43 1.49 1.50 1.54 1.57 1.68 1.76 1.75 1.84 2.03 2.11 2.11 2.27 2.32 2.30

GEFSSGP_prec_meanprecacc_306.txt.gz
Total_Precipitation_Accumulation
0.06 0.22 0.54 0.83 1.29 1.72 1.58 1.09 0.88 0.64 0.52 0.54 0.45 0.44 0.54 0.83 1.28 2.32 2.56 1.95 1.35 1.27 1.46 1.63 1.67 1.65 1.56 1.55 1.74 1.82 1.82 1.85 1.90 2.04 2.15 2.22 2.23 2.12 2.02 2.04 2.10 2.22 2.25 2.28 2.44 2.51 2.49 2.43 2.46
0.12 0.29 0.57 0.97 1.48 1.84 1.51 0.86 0.60 0.49 0.44 0.48 0.44 0.46 0.67 0.79 0.86 1.48 1.85 1.60 1.10 1.03 1.21 1.35 1.50 1.44 1.36 1.39 1.46 1.59 1.69 1.67 1.78 2.04 2.15 2.22 2.16 2.05 2.01 1.94 2.01 2.17 2.33 2.45 2.44 2.35 2.21 2.04 2.01
0.18 0.30 0.55 0.94 1.20 1.34 1.13 0.71 0.48 0.37 0.43 0.59 0.62 0.54 0.85 0.97 0.90 1.34 1.55 1.12 0.89 0.99 1.22 1.34 1.29 1.19 1.11 1.07 1.15 1.35 1.51 1.64 1.78 1.91 1.95 1.99 1.96 1.98 1.90 1.85 1.96 2.21 2.62 2.72 2.50 2.22 2.00 1.85 1.74
0.19 0.36 0.47 0.68 0.74 0.67 0.63 0.52 0.41 0.36 0.39 0.51 0.65 0.75 1.02 0.98 0.88 1.10 1.13 0.87 0.76 0.91 0.98 1.01 1.08 1.01 0.97 0.96 1.03 1.16 1.30 1.50 1.68 1.75 1.81 1.93 2.00 1.96 1.87 1.92 2.09 2.38 2.69 2.65 2.42 2.17 1.94 1.81 1.68
0.24 0.37 0.53 0.63 0.65 0.58 0.48 0.42 0.38 0.44 0.47 0.56 0.63 0.95 1.22 1.13 0.92 0.92 0.92 0.77 0.61 0.65 0.70 0.73 0.85 0.85 0.88 0.87 0.95 1.10 1.31 1.48 1.50 1.63 1.95 2.09 2.05 2.02 2.05 2.12 2.32 2.43 2.46 2.38 2.31 2.09 1.94 1.80 1.74
0.25 0.32 0.43 0.57 0.59 0.54 0.46 0.36 0.30 0.37 0.52 0.68 0.76 0.97 1.41 1.35 1.06 0.93 0.74 0.68 0.55 0.50 0.64 0.74 0.84 0.85 0.84 0.85 0.96 1.14 1.32 1.43 1.48 1.64 1.87 2.00 1.98 1.99 2.10 2.21 2.36 2.34 2.30 2.20 2.05 1.85 1.82 1.79 1.73
0.21 0.23 0.25 0.38 0.46 0.45 0.42 0.37 0.31 0.35 0.53 0.71 0.75 1.10 1.52 1.63 1.24 0.92 0.78 0.77 0.78 0.70 0.78 0.94 0.99 1.00 1.05 1.15 1.20 1.32 1.43 1.53 1.62 1.70 1.74 1.81 1.90 1.97 2.09 2.24 2.32 2.30 2.18 1.96 1.89 1.83 1.80 1.76 1.66
0.15 0.16 0.19 0.24 0.30 0.43 0.39 0.31 0.29 0.38 0.43 0.52 0.67 1.04 1.42 1.44 1.24 1.12 1.22 1.21 1.26 1.07 0.98 1.03 1.18 1.31 1.26 1.27 1.43 1.51 1.57 1.58 1.61 1.63 1.72 1.85 2.05 2.12 2.25 2.32 2.50 2.53 2.30 1.98 2.05 1.95 1.74 1.68 1.65
0.08 0.22 0.26 0.20 0.22 0.28 0.24 0.29 0.28 0.26 0.32 0.43 0.60 0.86 1.12 1.09 1.14 1.42 1.74 1.62 1.59 1.42 1.18 1.07 1.03 1.19 1.35 1.36 1.40 1.57 1.64 1.67 1.76 1.91 2.00 2.20 2.41 2.40 2.72 2.79 3.00 2.97 2.61 2.34 2.35 2.17 1.95 1.73 1.67
0.06 0.19 0.17 0.11 0.10 0.13 0.17 0.23 0.25 0.30 0.52 0.80 0.97 1.08 1.19 1.45 1.54 1.68 1.75 1.66 1.65 1.62 1.40 1.27 1.20 1.17 1.30 1.33 1.54 1.87 1.80 1.89 2.09 2.41 2.53 2.77 2.91 2.94 2.66 3.18 3.58 3.52 3.26 2.95 2.91 2.71 2.27 1.88 1.79
0.05 0.09 0.09 0.09 0.07 0.08 0.13 0.16 0.19 0.32 0.71 1.08 1.35 1.47 1.53 1.77 2.00 2.02 2.08 2.08 1.99 1.92 1.68 1.46 1.42 1.46 1.46 1.60 1.60 1.84 2.12 2.35 2.45 2.52 2.63 2.87 2.84 2.77 2.83 3.30 3.60 3.58 3.40 3.31 3.44 3.20 2.66 2.54 2.65
0.02 0.02 0.04 0.06 0.04 0.05 0.08 0.12 0.21 0.45 0.88 1.04 1.31 1.54 1.59 1.99 2.09 2.09 2.55 2.65 2.24 1.97 1.96 1.86 1.80 1.79 1.83 1.70 1.87 1.91 2.00 2.22 2.43 2.61 2.61 2.77 3.15 3.18 3.23 3.48 3.40 3.47 3.47 3.74 3.54 3.61 3.34 2.99 2.73
0.01 0.02 0.03 0.04 0.04 0.04 0.06 0.11 0.22 0.44 0.68 0.81 1.03 1.22 1.28 1.80 2.14 2.38 2.88 2.84 2.53 2.34 2.28 2.15 2.11 2.17 2.15 2.17 2.22 2.03 2.13 2.26 2.38 2.59 2.76 2.79 3.07 3.25 3.39 3.52 3.45 3.05 3.01 3.28 3.54 3.43 3.53 3.47 3.22
0.02 0.03 0.05 0.04 0.05 0.06 0.07 0.15 0.27 0.48 0.62 0.87 0.90 1.08 1.33 1.75 2.04 2.46 2.79 3.01 2.88 2.66 2.51 2.34 2.31 2.41 2.49 2.50 2.60 2.56 2.36 2.47 2.43 2.69 2.74 2.82 2.95 3.21 3.49 3.58 3.54 3.14 2.98 3.18 3.38 3.29 3.59 3.51 3.45
0.03 0.07 0.11 0.09 0.07 0.08 0.10 0.30 0.54 0.62 0.73 0.91 1.06 1.19 1.43 1.81 2.30 2.58 2.83 3.12 3.14 3.09 2.92 2.70 2.60 2.77 3.00 3.14 3.14 3.00 2.80 2.59 2.59 2.72 2.76 2.88 2.92 3.21 3.27 3.28 3.31 3.28 3.05 3.19 3.29 3.31 3.45 3.29 3.13
0.06 0.09 0.15 0.16 0.11 0.11 0.19 0.64 0.76 0.63 0.81 1.03 1.12 1.36 1.67 2.07 2.51 3.01 3.17 3.08 3.09 3.24 3.21 2.92 2.70 3.17 3.54 3.63 3.64 3.44 3.17 2.80 2.72 2.78 2.86 2.97 3.06 3.21 3.39 3.15 3.08 3.38 3.27 3.40 3.71 3.64 3.71 3.78 3.63
0.10 0.17 0.16 0.19 0.15 0.15 0.27 0.78 0.74 0.55 0.68 0.89 1.12 1.36 1.77 2.29 2.66 2.84 2.91 3.12 3.26 3.35 3.32 3.27 3.38 3.52 3.68 3.77 3.89 3.67 3.44 3.20 2.94 2.85 2.85 2.94 3.07 3.19 3.56 3.44 3.47 3.49 3.52 3.56 3.20 3.75 4.06 4.11 3.94
0.13 0.14 0.18 0.19 0.17 0.21 0.31 0.57 0.65 0.65 0.82 0.94 1.24 1.46 1.61 2.00 2.47 2.59 2.73 3.20 3.30 3.48 3.61 3.55 3.68 3.85 4.14 4.33 4.52 4.15 3.76 3.48 3.20 3.02 3.06 3.10 3.32 3.46 3.76 3.65 3.59 3.52 3.66 3.66 3.64 4.09 4.06 3.80 3.82
0.05 0.11 0.21 0.20 0.18 0.25 0.36 0.56 0.76 0.84 0.99 1.29 1.50 1.51 1.47 1.78 2.28 2.67 2.98 3.13 3.47 3.68 3.85 3.86 4.10 4.53 4.88 4.72 4.40 4.22 3.96 3.74 3.51 3.25 3.15 3.17 3.18 3.38 3.75 3.58 3.84 3.75 3.61 3.53 3.51 3.85 3.95 3.67 3.85
0.04 0.08 0.19 0.20 0.20 0.31 0.47 0.70 0.85 1.05 1.27 1.36 1.29 1.29 1.43 1.82 2.34 2.72 3.00 3.16 3.43 3.70 4.13 4.27 4.47 4.86 5.01 4.86 4.73 4.57 4.43 4.02 3.88 3.74 3.58 3.22 3.04 3.15 3.19 3.52 3.34 3.43 3.60 3.49 3.62 3.93 3.83 3.46 3.91
0.05 0.10 0.17 0.18 0.26 0.41 0.54 0.99 1.15 1.29 1.41 1.39 1.32 1.53 1.54 1.63 2.06 2.35 2.47 2.66 2.84 2.99 3.25 3.55 4.05 4.58 4.80 4.86 4.77 4.71 4.73 4.26 3.99 3.85 3.69 3.32 3.03 2.92 3.07 3.23 3.31 3.38 3.29 3.39 3.62 3.70 3.76 3.66 3.78
0.07 0.08 0.09 0.13 0.25 0.53 0.62 1.24 1.43 1.62 1.72 1.59 1.52 1.46 1.45 1.69 2.01 2.03 1.86 2.02 2.28 2.28 2.59 3.02 3.48 3.86 4.10 4.20 4.21 4.25 4.21 4.12 4.03 3.89 3.52 3.28 3.03 2.89 2.97 3.10 3.18 3.24 3.06 3.21 3.04 3.19 3.68 3.80 3.62
0.06 0.07 0.10 0.15 0.28 0.52 0.55 0.93 1.46 1.82 1.99 1.61 1.51 1.38 1.45 1.67 1.71 1.67 1.68 1.80 1.96 2.12 2.44 2.75 3.08 3.39 3.57 3.68 3.77 3.88 3.77 3.79 3.69 3.52 3.31 3.10 2.93 2.78 2.56 2.69 2.94 3.02 2.90 2.82 2.85 3.10 3.24 3.21 3.23
0.06 0.10 0.19 0.27 0.49 0.87 0.72 0.85 1.40 1.76 1.61 1.40 1.33 1.12 1.23 1.42 1.51 1.56 1.65 1.78 1.90 2.20 2.56 2.85 3.09 3.32 3.40 3.20 3.10 3.14 3.20 3.26 3.20 3.06 2.89 2.67 2.61 2.51 2.34 2.40 2.66 2.77 2.73 2.69 2.67 2.74 2.80 2.86 2.91
0.09 0.21 0.67 1.09 1.43 1.33 0.82 0.93 1.52 1.40 1.06 0.99 1.07 1.05 1.05 1.09 1.24 1.35 1.54 1.74 1.92 2.03 2.13 2.57 3.00 3.18 3.09 2.84 2.66 2.59 2.73 2.85 2.78 2.67 2.59 2.50 2.36 2.29 2.27 2.31 2.46 2.49 2.45 2.41 2.48 2.55 2.59 2.76 2.86
0.14 0.26 0.76 1.06 1.16 1.14 0.93 1.32 1.80 1.40 0.95 0.81 0.92 0.90 0.79 0.75 0.73 0.81 0.99 1.11 1.26 1.31 1.33 1.51 1.79 2.04 2.12 2.02 2.05 2.10 2.14 2.22 2.23 2.42 2.27 2.25 2.19 2.08 2.13 2.09 2.09 2.12 2.14 2.13 2.45 2.48 2.60 2.78 2.86
0.25 0.30 0.32 0.55 0.76 1.16 1.18 1.38 1.49 1.22 0.95 0.90 0.98 0.89 0.71 0.67 0.63 0.69 0.80 0.85 0.95 0.98 1.02 1.16 1.41 1.65 1.70 1.71 1.77 1.82 1.83 1.88 1.92 1.98 1.94 1.90 1.96 1.92 1.93 1.91 2.02 2.01 2.08 2.23 2.43 2.44 2.51 2.78 2.83
0.22 0.30 0.46 0.73 0.98 1.13 1.22 1.59 1.76 1.57 1.29 1.12 1.07 0.94 0.72 0.60 0.58 0.65 0.76 0.80 0.90 1.01 1.16 1.28 1.39 1.50 1.51 1.51 1.53 1.48 1.58 1.61 1.66 1.66 1.60 1.62 1.69 1.72 1.75 1.78 1.84 1.90 1.94 2.09 2.33 2.34 2.41 2.56 2.61
0.26 0.34 0.50 0.68 0.74 0.96 1.35 1.52 1.28 1.24 1.22 1.28 1.23 1.02 0.78 0.60 0.55 0.61 0.73 0.79 0.86 0.99 1.13 1.27 1.36 1.45 1.43 1.39 1.46 1.52 1.54 1.58 1.56 1.53 1.46 1.53 1.60 1.64 1.67 1.74 1.83 1.87 1.89 2.04 2.20 2.20 2.32 2.32 2.34
0.24 0.35 0.51 0.77 0.81 0.84 1.02 1.20 0.82 0.82 0.94 1.03 1.04 0.83 0.65 0.58 0.56 0.64 0.76 0.80 0.94 1.01 1.08 1.10 1.20 1.33 1.34 1.37 1.49 1.69 1.66 1.66 1.63 1.50 1.45 1.51 1.51 1.55 1.59 1.70 1.78 1.77 1.86 2.05 2.13 2.13 2.30 2.36 2.34

GEFSSGP_prec_meanprecacc_312.txt.gz
Total_Precipitation_Accumulation
0.07 0.27 0.70 0.99 1.39 1.79 1.64 1.16 0.93 0.66 0.54 0.56 0.46 0.45 0.55 0.84 1.29 2.39 2.72 2.11 1.44 1.34 1.55 1.72 1.73 1.69 1.60 1.58 1.77 1.85 1.85 1.86 1.92 2.06 2.17 2.26 2.27 2.16 2.06 2.09 2.15 2.27 2.32 2.39 2.58 2.68 2.67 2.58 2.60
0.15 0.41 0.79 1.14 1.57 1.89 1.57 0.95 0.68 0.57 0.48 0.50 0.46 0.47 0.68 0.79 0.88 1.56 1.99 1.74 1.19 1.11 1.29 1.43 1.56 1.48 1.38 1.42 1.48 1.61 1.71 1.68 1.79 2.06 2.17 2.25 2.20 2.11 2.06 1.99 2.05 2.22 2.38 2.52 2.54 2.47 2.32 2.12 2.10
0.24 0.45 0.83 1.17 1.29 1.40 1.21 0.80 0.58 0.48 0.50 0.64 0.64 0.55 0.87 0.99 0.93 1.42 1.66 1.21 0.96 1.05 1.27 1.42 1.36 1.23 1.12 1.08 1.17 1.37 1.53 1.66 1.79 1.92 1.97 2.01 1.99 2.04 1.98 1.91 2.02 2.26 2.67 2.78 2.57 2.32 2.05 1.88 1.79
0.27 0.48 0.69 0.85 0.79 0.69 0.68 0.59 0.49 0.44 0.46 0.57 0.68 0.77 1.05 1.00 0.92 1.17 1.24 0.97 0.82 0.96 1.02 1.07 1.14 1.04 0.98 0.98 1.05 1.19 1.32 1.52 1.71 1.77 1.83 1.95 2.02 2.03 1.97 2.00 2.17 2.46 2.77 2.71 2.49 2.25 1.98 1.84 1.71
0.33 0.51 0.69 0.71 0.67 0.60 0.52 0.47 0.42 0.47 0.52 0.59 0.66 0.98 1.27 1.17 0.96 0.98 1.01 0.85 0.69 0.71 0.74 0.77 0.89 0.89 0.91 0.90 0.97 1.13 1.32 1.50 1.52 1.65 1.97 2.12 2.10 2.10 2.14 2.21 2.41 2.52 2.56 2.48 2.40 2.17 1.99 1.85 1.80
0.39 0.45 0.50 0.62 0.62 0.57 0.48 0.38 0.32 0.39 0.54 0.70 0.78 1.00 1.47 1.40 1.10 0.97 0.78 0.74 0.62 0.57 0.68 0.78 0.87 0.87 0.86 0.87 0.99 1.17 1.34 1.45 1.50 1.66 1.90 2.04 2.03 2.06 2.19 2.32 2.46 2.45 2.42 2.30 2.16 1.95 1.90 1.86 1.82
0.33 0.31 0.30 0.40 0.48 0.47 0.43 0.37 0.31 0.35 0.53 0.72 0.77 1.14 1.60 1.69 1.28 0.94 0.79 0.79 0.81 0.74 0.82 0.96 1.01 1.02 1.07 1.16 1.23 1.34 1.46 1.55 1.65 1.74 1.77 1.86 1.97 2.04 2.17 2.33 2.42 2.41 2.30 2.07 2.00 1.95 1.91 1.83 1.73
0.21 0.22 0.22 0.26 0.32 0.44 0.39 0.31 0.30 0.39 0.44 0.53 0.69 1.08 1.49 1.50 1.26 1.14 1.25 1.23 1.30 1.11 1.02 1.07 1.20 1.33 1.27 1.29 1.45 1.53 1.59 1.61 1.64 1.67 1.76 1.89 2.10 2.20 2.33 2.39 2.56 2.59 2.37 2.05 2.14 2.06 1.84 1.75 1.71
0.13 0.27 0.28 0.21 0.23 0.28 0.25 0.29 0.29 0.27 0.33 0.46 0.64 0.89 1.14 1.12 1.15 1.44 1.77 1.65 1.62 1.46 1.23 1.12 1.06 1.21 1.36 1.39 1.43 1.61 1.67 1.71 1.79 1.95 2.05 2.24 2.44 2.43 2.77 2.83 3.05 3.01 2.65 2.40 2.43 2.25 2.02 1.81 1.74
0.09 0.23 0.18 0.11 0.10 0.14 0.17 0.24 0.26 0.31 0.54 0.83 0.99 1.10 1.23 1.50 1.55 1.69 1.78 1.69 1.68 1.64 1.43 1.31 1.26 1.21 1.33 1.36 1.58 1.94 1.83 1.93 2.12 2.43 2.56 2.79 2.93 2.96 2.69 3.21 3.63 3.56 3.32 3.03 2.99 2.77 2.33 1.95 1.87
0.06 0.10 0.10 0.10 0.07 0.09 0.14 0.16 0.20 0.33 0.73 1.12 1.40 1.49 1.55 1.83 2.04 2.05 2.10 2.11 2.02 1.95 1.71 1.50 1.47 1.51 1.49 1.63 1.63 1.90 2.15 2.38 2.48 2.55 2.65 2.90 2.87 2.81 2.86 3.36 3.69 3.66 3.49 3.41 3.54 3.27 2.72 2.61 2.73
0.03 0.03 0.05 0.06 0.05 0.06 0.09 0.13 0.22 0.47 0.92 1.11 1.38 1.57 1.61 2.01 2.13 2.13 2.58 2.68 2.27 2.01 1.99 1.90 1.82 1.81 1.85 1.73 1.90 1.94 2.03 2.25 2.46 2.65 2.64 2.79 3.17 3.21 3.26 3.54 3.50 3.56 3.55 3.87 3.68 3.74 3.44 3.08 2.82
0.02 0.03 0.04 0.04 0.04 0.04 0.06 0.13 0.24 0.47 0.73 0.86 1.08 1.26 1.31 1.83 2.16 2.41 2.92 2.87 2.56 2.37 2.32 2.19 2.13 2.19 2.18 2.19 2.25 2.06 2.17 2.29 2.41 2.63 2.80 2.81 3.09 3.28 3.43 3.57 3.53 3.14 3.09 3.39 3.67 3.56 3.63 3.55 3.31
0.02 0.04 0.06 0.05 0.05 0.06 0.07 0.16 0.31 0.54 0.67 0.92 0.95 1.14 1.39 1.79 2.08 2.49 2.81 3.04 2.90 2.68 2.53 2.37 2.35 2.44 2.51 2.53 2.63 2.58 2.39 2.51 2.47 2.75 2.80 2.85 2.97 3.22 3.52 3.63 3.59 3.20 3.05 3.25 3.45 3.35 3.66 3.58 3.53
0.03 0.08 0.12 0.10 0.08 0.09 0.10 0.32 0.58 0.66 0.77 0.96 1.14 1.27 1.51 1.87 2.36 2.62 2.86 3.14 3.15 3.10 2.94 2.72 2.65 2.80 3.03 3.17 3.18 3.07 2.86 2.62 2.63 2.76 2.81 2.92 2.95 3.24 3.31 3.33 3.36 3.33 3.12 3.24 3.33 3.35 3.52 3.37 3.22
0.07 0.10 0.17 0.17 0.13 0.12 0.20 0.67 0.79 0.66 0.85 1.10 1.22 1.46 1.76 2.17 2.58 3.05 3.19 3.09 3.11 3.25 3.22 2.94 2.73 3.18 3.56 3.66 3.69 3.48 3.20 2.83 2.76 2.82 2.91 3.02 3.12 3.27 3.46 3.22 3.13 3.44 3.33 3.44 3.76 3.68 3.77 3.89 3.71
0.12 0.18 0.17 0.20 0.17 0.16 0.29 0.81 0.78 0.58 0.72 0.96 1.20 1.44 1.88 2.41 2.74 2.89 2.93 3.13 3.27 3.35 3.33 3.28 3.38 3.52 3.69 3.78 3.91 3.69 3.46 3.23 2.97 2.88 2.89 3.00 3.13 3.26 3.62 3.49 3.53 3.56 3.57 3.61 3.25 3.78 4.09 4.16 3.99
0.15 0.15 0.19 0.20 0.18 0.22 0.32 0.59 0.67 0.68 0.85 0.98 1.29 1.52 1.69 2.09 2.56 2.65 2.77 3.22 3.31 3.48 3.62 3.56 3.68 3.86 4.14 4.34 4.53 4.17 3.80 3.52 3.24 3.05 3.10 3.16 3.37 3.50 3.81 3.70 3.64 3.56 3.71 3.71 3.69 4.13 4.10 3.84 3.87
0.06 0.12 0.22 0.20 0.19 0.26 0.38 0.58 0.77 0.85 1.01 1.31 1.53 1.55 1.53 1.84 2.34 2.72 3.03 3.16 3.49 3.69 3.86 3.86 4.11 4.54 4.88 4.73 4.41 4.24 4.00 3.77 3.55 3.28 3.19 3.24 3.24 3.42 3.78 3.61 3.86 3.79 3.65 3.57 3.54 3.89 3.99 3.71 3.90
0.04 0.09 0.19 0.21 0.20 0.32 0.49 0.72 0.87 1.07 1.28 1.37 1.31 1.32 1.48 1.87 2.38 2.77 3.05 3.19 3.45 3.72 4.15 4.28 4.48 4.87 5.02 4.87 4.74 4.59 4.44 4.04 3.91 3.78 3.63 3.25 3.07 3.19 3.23 3.55 3.36 3.46 3.64 3.53 3.64 3.96 3.86 3.49 3.96
0.06 0.11 0.18 0.18 0.26 0.43 0.57 1.02 1.18 1.31 1.42 1.40 1.34 1.54 1.57 1.66 2.09 2.37 2.50 2.68 2.86 3.01 3.27 3.56 4.06 4.59 4.81 4.88 4.78 4.73 4.74 4.28 4.02 3.89 3.72 3.35 3.07 2.97 3.10 3.26 3.33 3.40 3.32 3.44 3.65 3.73 3.78 3.69 3.82
0.08 0.10 0.11 0.14 0.26 0.55 0.65 1.30 1.49 1.66 1.75 1.61 1.53 1.47 1.47 1.71 2.03 2.04 1.88 2.04 2.30 2.29 2.60 3.02 3.49 3.86 4.11 4.21 4.22 4.26 4.22 4.14 4.05 3.91 3.55 3.31 3.07 2.94 3.01 3.13 3.20 3.26 3.09 3.24 3.08 3.21 3.70 3.82 3.65
0.07 0.10 0.12 0.17 0.29 0.54 0.59 0.99 1.51 1.86 2.01 1.63 1.53 1.39 1.46 1.69 1.72 1.68 1.70 1.82 1.97 2.13 2.44 2.76 3.09 3.39 3.57 3.68 3.77 3.89 3.78 3.80 3.70 3.54 3.34 3.13 2.98 2.84 2.61 2.73 2.98 3.06 2.93 2.85 2.87 3.12 3.26 3.23 3.25
0.06 0.13 0.20 0.28 0.50 0.90 0.77 0.88 1.43 1.78 1.63 1.42 1.35 1.14 1.25 1.44 1.52 1.57 1.66 1.78 1.91 2.21 2.56 2.85 3.09 3.33 3.40 3.20 3.10 3.14 3.20 3.27 3.22 3.08 2.91 2.70 2.65 2.57 2.40 2.44 2.71 2.81 2.77 2.71 2.68 2.76 2.82 2.88 2.93
0.10 0.23 0.69 1.12 1.45 1.35 0.84 0.94 1.54 1.42 1.08 1.00 1.09 1.07 1.07 1.11 1.25 1.36 1.54 1.74 1.92 2.04 2.13 2.57 3.00 3.18 3.09 2.84 2.66 2.59 2.74 2.86 2.79 2.68 2.61 2.52 2.40 2.34 2.33 2.36 2.50 2.52 2.48 2.43 2.50 2.57 2.61 2.77 2.88
0.15 0.27 0.77 1.08 1.17 1.15 0.94 1.34 1.83 1.42 0.97 0.83 0.93 0.91 0.80 0.76 0.74 0.82 1.00 1.11 1.26 1.31 1.34 1.51 1.79 2.04 2.12 2.03 2.05 2.11 2.15 2.23 2.24 2.44 2.29 2.28 2.22 2.11 2.16 2.13 2.13 2.15 2.16 2.14 2.46 2.50 2.62 2.79 2.87
0.26 0.31 0.33 0.56 0.78 1.17 1.20 1.42 1.52 1.24 0.97 0.92 1.00 0.90 0.72 0.68 0.64 0.71 0.81 0.86 0.95 0.98 1.02 1.17 1.41 1.65 1.70 1.72 1.77 1.82 1.84 1.88 1.92 1.99 1.95 1.92 1.98 1.94 1.95 1.94 2.07 2.06 2.11 2.25 2.44 2.45 2.52 2.79 2.85
0.22 0.30 0.46 0.73 0.99 1.15 1.26 1.63 1.80 1.60 1.32 1.14 1.08 0.96 0.74 0.62 0.60 0.67 0.78 0.81 0.91 1.02 1.16 1.29 1.40 1.50 1.51 1.51 1.53 1.49 1.59 1.61 1.67 1.67 1.61 1.64 1.71 1.73 1.77 1.80 1.88 1.94 1.98 2.12 2.35 2.35 2.42 2.58 2.64
0.26 0.34 0.50 0.68 0.74 0.97 1.38 1.55 1.31 1.26 1.23 1.29 1.24 1.04 0.81 0.63 0.58 0.63 0.74 0.80 0.86 0.99 1.13 1.28 1.36 1.46 1.43 1.39 1.47 1.53 1.55 1.59 1.57 1.54 1.47 1.54 1.62 1.67 1.69 1.76 1.85 1.89 1.93 2.09 2.25 2.23 2.33 2.33 2.36
0.24 0.35 0.51 0.77 0.82 0.85 1.03 1.23 0.85 0.86 0.96 1.04 1.05 0.84 0.67 0.60 0.60 0.66 0.77 0.81 0.95 1.02 1.09 1.12 1.22 1.34 1.35 1.38 1.50 1.70 1.68 1.68 1.65 1.52 1.47 1.52 1.53 1.56 1.61 1.71 1.80 1.79 1.90 2.10 2.19 2.18 2.32 2.39 2.37

GEFSSGP_prec_meanprecacc_318.txt.gz
Total_Precipitation_Accumulation
0.10 0.31 0.74 1.03 1.43 1.82 1.70 1.24 0.99 0.70 0.56 0.58 0.48 0.47 0.56 0.86 1.32 2.42 2.74 2.17 1.57 1.44 1.64 1.82 1.81 1.74 1.63 1.62 1.82 1.89 1.88 1.89 1.95 2.10 2.22 2.31 2.32 2.22 2.11 2.13 2.21 2.35 2.40 2.46 2.67 2.79 2.84 2.74 2.73
0.17 0.44 0.83 1.17 1.60 1.93 1.64 1.04 0.76 0.62 0.51 0.53 0.47 0.48 0.69 0.81 0.90 1.59 2.05 1.81 1.27 1.18 1.36 1.51 1.63 1.54 1.43 1.46 1.52 1.64 1.74 1.70 1.83 2.11 2.23 2.30 2.26 2.16 2.11 2.03 2.11 2.30 2.48 2.62 2.66 2.64 2.53 2.29 2.23
0.26 0.48 0.88 1.21 1.32 1.43 1.28 0.88 0.65 0.53 0.53 0.67 0.65 0.56 0.88 1.00 0.96 1.49 1.80 1.34 1.09 1.11 1.32 1.48 1.42 1.28 1.17 1.11 1.20 1.40 1.56 1.68 1.82 1.96 2.03 2.07 2.08 2.12 2.04 1.96 2.07 2.34 2.77 2.91 2.75 2.51 2.22 2.01 1.89
0.29 0.51 0.74 0.90 0.83 0.74 0.73 0.64 0.53 0.48 0.51 0.61 0.70 0.78 1.06 1.02 0.96 1.26 1.39 1.12 1.04 1.04 1.06 1.12 1.20 1.09 1.04 1.01 1.07 1.22 1.34 1.55 1.74 1.82 1.89 2.02 2.12 2.16 2.09 2.08 2.24 2.55 2.88 2.86 2.65 2.37 2.06 1.90 1.77
0.34 0.53 0.72 0.74 0.72 0.65 0.56 0.50 0.45 0.51 0.56 0.62 0.67 0.99 1.29 1.20 0.99 1.03 1.10 0.95 0.80 0.79 0.78 0.83 0.95 0.94 0.97 0.95 1.01 1.16 1.37 1.53 1.56 1.71 2.05 2.20 2.25 2.35 2.31 2.31 2.50 2.61 2.65 2.57 2.49 2.23 2.04 1.88 1.84
0.41 0.47 0.53 0.64 0.66 0.60 0.51 0.40 0.34 0.43 0.56 0.71 0.79 1.02 1.51 1.44 1.12 1.00 0.81 0.76 0.64 0.59 0.71 0.82 0.91 0.91 0.89 0.91 1.03 1.22 1.39 1.49 1.54 1.72 1.97 2.12 2.19 2.29 2.37 2.44 2.59 2.57 2.54 2.42 2.27 2.02 1.96 1.90 1.87
0.35 0.33 0.31 0.41 0.49 0.48 0.44 0.38 0.33 0.38 0.55 0.73 0.77 1.16 1.63 1.72 1.30 0.96 0.82 0.81 0.83 0.76 0.85 0.99 1.04 1.06 1.10 1.19 1.26 1.38 1.50 1.60 1.71 1.79 1.83 1.91 2.05 2.13 2.25 2.42 2.56 2.60 2.48 2.22 2.15 2.05 1.99 1.90 1.83
0.23 0.24 0.23 0.27 0.32 0.44 0.40 0.31 0.31 0.41 0.46 0.54 0.70 1.09 1.51 1.51 1.29 1.16 1.27 1.25 1.33 1.15 1.05 1.09 1.23 1.35 1.29 1.31 1.48 1.58 1.64 1.66 1.69 1.71 1.79 1.93 2.14 2.24 2.38 2.45 2.69 2.80 2.58 2.24 2.30 2.18 1.96 1.85 1.82
0.16 0.33 0.30 0.22 0.23 0.29 0.26 0.30 0.30 0.28 0.34 0.47 0.66 0.90 1.17 1.14 1.16 1.45 1.79 1.67 1.66 1.52 1.28 1.16 1.08 1.23 1.38 1.41 1.46 1.65 1.73 1.77 1.85 1.98 2.09 2.28 2.47 2.46 2.80 2.86 3.12 3.13 2.82 2.59 2.60 2.37 2.15 1.92 1.85
0.11 0.27 0.21 0.12 0.11 0.14 0.18 0.25 0.28 0.31 0.55 0.84 1.01 1.13 1.30 1.54 1.56 1.70 1.79 1.71 1.70 1.67 1.47 1.36 1.29 1.24 1.35 1.38 1.61 1.97 1.85 1.96 2.16 2.46 2.60 2.82 2.96 2.98 2.70 3.25 3.71 3.65 3.44 3.20 3.16 2.90 2.45 2.05 1.95
0.07 0.11 0.11 0.10 0.07 0.09 0.15 0.17 0.21 0.35 0.75 1.14 1.42 1.52 1.59 1.86 2.05 2.05 2.12 2.13 2.03 1.97 1.73 1.53 1.50 1.55 1.52 1.65 1.66 1.92 2.18 2.41 2.51 2.56 2.67 2.92 2.89 2.82 2.89 3.39 3.74 3.71 3.56 3.53 3.65 3.37 2.80 2.67 2.79
0.03 0.03 0.05 0.07 0.05 0.06 0.09 0.14 0.24 0.49 0.94 1.13 1.39 1.59 1.64 2.04 2.15 2.15 2.59 2.70 2.29 2.03 2.01 1.92 1.85 1.85 1.88 1.74 1.91 1.95 2.05 2.28 2.48 2.67 2.66 2.82 3.19 3.24 3.30 3.57 3.53 3.60 3.60 3.95 3.76 3.80 3.49 3.13 2.88
0.02 0.03 0.04 0.05 0.04 0.04 0.07 0.15 0.27 0.50 0.75 0.89 1.10 1.28 1.33 1.85 2.19 2.43 2.93 2.89 2.59 2.39 2.34 2.21 2.15 2.21 2.20 2.20 2.26 2.07 2.19 2.31 2.43 2.65 2.82 2.85 3.13 3.34 3.48 3.63 3.59 3.19 3.16 3.48 3.76 3.64 3.69 3.62 3.37
0.02 0.04 0.06 0.05 0.06 0.07 0.08 0.17 0.33 0.57 0.69 0.94 0.97 1.15 1.40 1.81 2.10 2.51 2.83 3.06 2.91 2.69 2.55 2.39 2.36 2.46 2.53 2.54 2.67 2.62 2.42 2.54 2.50 2.78 2.84 2.89 3.02 3.27 3.56 3.70 3.72 3.31 3.14 3.36 3.60 3.50 3.76 3.65 3.59
0.03 0.09 0.13 0.11 0.10 0.11 0.11 0.33 0.61 0.71 0.80 1.00 1.17 1.29 1.53 1.90 2.38 2.64 2.88 3.15 3.16 3.11 2.95 2.74 2.67 2.82 3.04 3.19 3.22 3.10 2.89 2.65 2.66 2.80 2.84 2.95 2.98 3.29 3.36 3.43 3.52 3.47 3.25 3.37 3.49 3.51 3.66 3.48 3.30
0.07 0.11 0.18 0.19 0.14 0.13 0.20 0.67 0.82 0.71 0.90 1.16 1.26 1.49 1.79 2.20 2.62 3.07 3.21 3.10 3.11 3.26 3.22 2.95 2.75 3.21 3.58 3.68 3.71 3.50 3.23 2.86 2.79 2.85 2.94 3.06 3.15 3.32 3.52 3.27 3.20 3.54 3.45 3.56 3.88 3.79 3.87 3.98 3.79
0.12 0.19 0.18 0.21 0.18 0.17 0.30 0.82 0.80 0.62 0.78 1.02 1.25 1.48 1.93 2.45 2.78 2.91 2.94 3.14 3.28 3.36 3.34 3.29 3.40 3.55 3.72 3.80 3.92 3.70 3.47 3.24 2.99 2.91 2.92 3.03 3.17 3.32 3.68 3.52 3.56 3.62 3.66 3.71 3.36 3.87 4.17 4.24 4.07
0.15 0.15 0.19 0.20 0.19 0.22 0.33 0.60 0.69 0.71 0.91 1.06 1.37 1.58 1.76 2.15 2.59 2.67 2.78 3.23 3.32 3.49 3.62 3.57 3.70 3.88 4.17 4.35 4.54 4.18 3.81 3.54 3.26 3.07 3.12 3.17 3.40 3.53 3.83 3.72 3.67 3.60 3.76 3.78 3.77 4.19 4.16 3.90 3.95
0.06 0.12 0.22 0.21 0.19 0.27 0.39 0.59 0.78 0.88 1.06 1.39 1.62 1.62 1.60 1.92 2.38 2.75 3.05 3.17 3.50 3.70 3.86 3.87 4.12 4.56 4.90 4.73 4.42 4.25 4.02 3.80 3.56 3.30 3.21 3.26 3.27 3.45 3.81 3.64 3.91 3.84 3.69 3.62 3.59 3.93 4.03 3.75 3.96
0.04 0.10 0.19 0.21 0.20 0.33 0.50 0.73 0.88 1.09 1.31 1.44 1.38 1.38 1.53 1.92 2.43 2.80 3.07 3.20 3.46 3.73 4.15 4.28 4.50 4.88 5.03 4.88 4.75 4.60 4.46 4.07 3.94 3.80 3.64 3.28 3.10 3.22 3.26 3.59 3.42 3.51 3.68 3.57 3.68 3.99 3.89 3.53 4.01
0.06 0.11 0.18 0.18 0.27 0.44 0.58 1.03 1.19 1.32 1.45 1.46 1.40 1.59 1.61 1.70 2.13 2.41 2.52 2.69 2.87 3.01 3.27 3.56 4.07 4.60 4.81 4.88 4.78 4.73 4.76 4.29 4.04 3.91 3.74 3.36 3.09 3.00 3.14 3.30 3.38 3.45 3.37 3.49 3.69 3.75 3.81 3.72 3.86
0.08 0.10 0.11 0.15 0.27 0.55 0.67 1.31 1.50 1.67 1.77 1.64 1.58 1.52 1.51 1.75 2.07 2.08 1.89 2.04 2.30 2.30 2.60 3.03 3.50 3.87 4.11 4.21 4.22 4.26 4.22 4.14 4.06 3.92 3.55 3.32 3.08 2.96 3.04 3.16 3.23 3.30 3.12 3.28 3.12 3.24 3.72 3.85 3.68
0.07 0.10 0.12 0.17 0.30 0.55 0.61 1.00 1.51 1.87 2.02 1.64 1.55 1.42 1.49 1.72 1.76 1.71 1.72 1.83 1.98 2.13 2.45 2.76 3.10 3.40 3.57 3.68 3.77 3.89 3.78 3.80 3.70 3.54 3.34 3.14 2.99 2.85 2.65 2.78 3.02 3.09 2.96 2.87 2.90 3.15 3.29 3.25 3.28
0.07 0.13 0.21 0.29 0.50 0.90 0.77 0.89 1.43 1.79 1.63 1.43 1.36 1.15 1.26 1.46 1.55 1.59 1.68 1.80 1.92 2.22 2.57 2.86 3.10 3.33 3.40 3.20 3.10 3.15 3.21 3.27 3.22 3.09 2.91 2.71 2.66 2.58 2.43 2.49 2.75 2.85 2.79 2.73 2.71 2.79 2.85 2.90 2.95
0.10 0.23 0.70 1.13 1.45 1.35 0.84 0.95 1.55 1.43 1.09 1.01 1.09 1.08 1.07 1.12 1.26 1.37 1.56 1.75 1.93 2.05 2.14 2.58 3.01 3.18 3.09 2.84 2.66 2.60 2.74 2.86 2.80 2.69 2.62 2.53 2.41 2.36 2.36 2.39 2.53 2.55 2.50 2.45 2.53 2.59 2.62 2.78 2.90
0.15 0.27 0.78 1.09 1.18 1.16 0.95 1.35 1.84 1.43 0.98 0.84 0.94 0.92 0.81 0.77 0.74 0.83 1.01 1.13 1.27 1.32 1.34 1.52 1.80 2.04 2.12 2.03 2.05 2.11 2.15 2.24 2.25 2.45 2.30 2.29 2.23 2.13 2.19 2.16 2.16 2.18 2.18 2.16 2.49 2.52 2.63 2.80 2.88
0.26 0.31 0.33 0.56 0.78 1.18 1.20 1.42 1.52 1.25 0.97 0.93 1.00 0.91 0.72 0.68 0.64 0.72 0.83 0.88 0.97 0.99 1.04 1.18 1.42 1.66 1.71 1.72 1.78 1.82 1.85 1.90 1.94 2.00 1.96 1.93 2.00 1.96 1.97 1.97 2.11 2.10 2.15 2.28 2.47 2.47 2.56 2.81 2.86
0.22 0.30 0.46 0.74 0.99 1.15 1.26 1.63 1.80 1.60 1.33 1.14 1.08 0.96 0.75 0.62 0.61 0.69 0.80 0.83 0.92 1.03 1.19 1.32 1.43 1.52 1.53 1.52 1.53 1.49 1.60 1.63 1.69 1.68 1.63 1.65 1.73 1.75 1.79 1.83 1.93 2.00 2.05 2.17 2.38 2.37 2.45 2.60 2.67
0.26 0.34 0.50 0.68 0.74 0.97 1.38 1.55 1.31 1.26 1.24 1.30 1.25 1.04 0.81 0.63 0.59 0.65 0.78 0.83 0.88 1.00 1.15 1.30 1.39 1.49 1.46 1.41 1.48 1.53 1.55 1.60 1.59 1.56 1.49 1.56 1.64 1.69 1.71 1.79 1.90 1.94 1.98 2.14 2.29 2.26 2.36 2.37 2.39
0.25 0.35 0.51 0.77 0.82 0.85 1.03 1.23 0.86 0.86 0.96 1.05 1.05 0.85 0.67 0.61 0.61 0.67 0.78 0.83 0.96 1.03 1.10 1.14 1.25 1.38 1.39 1.41 1.52 1.72 1.69 1.70 1.67 1.54 1.48 1.53 1.55 1.58 1.63 1.73 1.83 1.82 1.93 2.13 2.23 2.22 2.37 2.44 2.41

GEFSSGP_prec_meanprecacc_324.txt.gz
Total_Precipitation_Accumulation
0.11 0.32 0.75 1.03 1.45 1.83 1.72 1.25 1.00 0.71 0.58 0.59 0.49 0.48 0.59 0.89 1.36 2.48 2.83 2.28 1.68 1.55 1.73 1.90 1.88 1.83 1.72 1.69 1.90 1.97 1.95 1.98 2.02 2.17 2.28 2.38 2.41 2.31 2.20 2.21 2.28 2.44 2.48 2.53 2.75 2.88 2.95 2.88 2.88
0.18 0.45 0.83 1.19 1.62 1.94 1.66 1.06 0.77 0.64 0.53 0.53 0.47 0.48 0.71 0.84 0.94 1.65 2.12 1.88 1.34 1.25 1.43 1.60 1.71 1.63 1.50 1.52 1.58 1.71 1.80 1.78 1.91 2.19 2.33 2.41 2.35 2.25 2.18 2.10 2.19 2.39 2.57 2.69 2.74 2.74 2.67 2.47 2.42
0.28 0.50 0.90 1.23 1.33 1.44 1.29 0.90 0.67 0.54 0.55 0.68 0.66 0.57 0.90 1.07 1.04 1.57 1.89 1.39 1.15 1.16 1.37 1.55 1.50 1.36 1.24 1.16 1.25 1.47 1.64 1.76 1.90 2.05 2.13 2.19 2.16 2.20 2.10 2.04 2.18 2.46 2.89 3.01 2.85 2.67 2.41 2.19 2.05
0.32 0.56 0.77 0.92 0.83 0.74 0.75 0.67 0.56 0.50 0.52 0.62 0.71 0.79 1.09 1.06 1.01 1.31 1.46 1.17 1.08 1.09 1.10 1.16 1.25 1.16 1.10 1.06 1.11 1.27 1.43 1.63 1.81 1.90 1.97 2.12 2.21 2.23 2.16 2.15 2.34 2.68 3.04 3.04 2.86 2.60 2.24 2.03 1.87
0.36 0.57 0.74 0.75 0.72 0.65 0.57 0.52 0.47 0.54 0.57 0.63 0.69 1.00 1.32 1.23 1.02 1.06 1.13 0.99 0.85 0.83 0.81 0.86 0.99 0.99 1.02 1.00 1.07 1.23 1.46 1.61 1.62 1.78 2.12 2.29 2.34 2.45 2.41 2.40 2.61 2.76 2.87 2.82 2.73 2.41 2.16 1.98 1.91
0.41 0.48 0.54 0.65 0.66 0.60 0.51 0.41 0.36 0.47 0.59 0.73 0.80 1.04 1.55 1.47 1.15 1.03 0.85 0.79 0.67 0.62 0.74 0.86 0.96 0.94 0.93 0.95 1.08 1.29 1.49 1.57 1.62 1.81 2.05 2.23 2.35 2.43 2.49 2.55 2.72 2.74 2.73 2.59 2.40 2.11 2.03 1.98 1.96
0.35 0.33 0.31 0.42 0.50 0.49 0.45 0.39 0.35 0.40 0.56 0.74 0.78 1.18 1.66 1.74 1.32 1.00 0.86 0.84 0.86 0.78 0.90 1.04 1.10 1.10 1.13 1.22 1.30 1.43 1.58 1.69 1.80 1.88 1.93 2.08 2.22 2.27 2.38 2.53 2.67 2.70 2.57 2.30 2.23 2.12 2.06 1.98 1.91
0.23 0.24 0.23 0.27 0.33 0.45 0.41 0.32 0.33 0.43 0.48 0.55 0.71 1.11 1.53 1.53 1.31 1.18 1.30 1.28 1.36 1.18 1.09 1.14 1.28 1.40 1.33 1.34 1.51 1.62 1.69 1.73 1.78 1.79 1.88 2.02 2.22 2.33 2.48 2.56 2.82 2.92 2.70 2.35 2.42 2.30 2.06 1.95 1.93
0.16 0.34 0.31 0.22 0.24 0.30 0.27 0.31 0.32 0.30 0.36 0.49 0.69 0.92 1.18 1.15 1.18 1.47 1.81 1.70 1.71 1.57 1.32 1.20 1.12 1.27 1.42 1.44 1.48 1.68 1.76 1.83 1.91 2.04 2.15 2.35 2.53 2.53 2.87 2.94 3.27 3.30 2.97 2.73 2.73 2.50 2.25 2.04 2.03
0.11 0.27 0.21 0.12 0.11 0.14 0.19 0.26 0.29 0.33 0.56 0.86 1.04 1.15 1.31 1.56 1.57 1.71 1.80 1.72 1.71 1.70 1.53 1.41 1.32 1.27 1.39 1.42 1.66 2.02 1.89 2.01 2.21 2.52 2.66 2.89 3.02 3.04 2.75 3.31 3.80 3.77 3.56 3.34 3.28 3.01 2.55 2.15 2.09
0.07 0.11 0.11 0.10 0.08 0.10 0.15 0.18 0.22 0.36 0.76 1.17 1.44 1.55 1.61 1.87 2.06 2.06 2.13 2.14 2.05 1.99 1.76 1.56 1.53 1.59 1.55 1.69 1.71 1.98 2.23 2.45 2.54 2.61 2.74 2.99 2.97 2.87 2.92 3.42 3.78 3.78 3.64 3.66 3.78 3.50 2.91 2.77 2.90
0.03 0.03 0.05 0.07 0.06 0.07 0.11 0.15 0.26 0.51 0.97 1.15 1.42 1.61 1.65 2.04 2.16 2.16 2.60 2.70 2.30 2.04 2.03 1.95 1.89 1.90 1.92 1.76 1.94 1.99 2.10 2.31 2.51 2.71 2.72 2.88 3.27 3.31 3.35 3.60 3.57 3.65 3.67 4.08 3.91 3.92 3.59 3.23 2.97
0.02 0.03 0.04 0.05 0.05 0.05 0.08 0.17 0.29 0.52 0.76 0.90 1.13 1.31 1.36 1.86 2.20 2.45 2.95 2.90 2.60 2.41 2.36 2.24 2.19 2.26 2.24 2.24 2.30 2.10 2.22 2.33 2.46 2.69 2.86 2.90 3.20 3.41 3.55 3.69 3.66 3.25 3.22 3.58 3.90 3.76 3.77 3.71 3.46
0.03 0.05 0.06 0.06 0.07 0.07 0.08 0.18 0.35 0.60 0.71 0.95 0.98 1.17 1.42 1.82 2.11 2.52 2.84 3.07 2.92 2.70 2.57 2.42 2.40 2.50 2.57 2.58 2.70 2.65 2.45 2.58 2.53 2.81 2.88 2.95 3.09 3.35 3.63 3.77 3.80 3.38 3.19 3.43 3.69 3.61 3.86 3.74 3.68
0.04 0.09 0.13 0.11 0.11 0.11 0.12 0.34 0.63 0.74 0.82 1.01 1.17 1.30 1.54 1.91 2.39 2.65 2.89 3.16 3.17 3.11 2.96 2.78 2.71 2.86 3.08 3.23 3.24 3.12 2.92 2.69 2.70 2.85 2.89 3.00 3.02 3.34 3.41 3.49 3.60 3.55 3.31 3.46 3.61 3.64 3.78 3.59 3.41
0.07 0.11 0.19 0.19 0.15 0.14 0.21 0.68 0.84 0.74 0.93 1.17 1.26 1.50 1.80 2.21 2.62 3.08 3.22 3.12 3.12 3.26 3.23 2.99 2.80 3.24 3.61 3.72 3.75 3.54 3.26 2.89 2.84 2.90 2.98 3.09 3.18 3.36 3.59 3.36 3.33 3.64 3.52 3.66 4.03 3.95 4.02 4.12 3.93
0.12 0.19 0.18 0.22 0.18 0.17 0.30 0.83 0.81 0.65 0.84 1.05 1.26 1.49 1.94 2.46 2.79 2.91 2.95 3.15 3.29 3.36 3.34 3.31 3.43 3.58 3.74 3.84 3.96 3.73 3.50 3.28 3.03 2.94 2.94 3.06 3.20 3.35 3.74 3.69 3.76 3.77 3.73 3.80 3.48 4.01 4.32 4.40 4.23
0.15 0.15 0.19 0.21 0.19 0.22 0.34 0.61 0.70 0.73 0.99 1.11 1.39 1.59 1.77 2.16 2.60 2.68 2.79 3.24 3.32 3.49 3.63 3.58 3.71 3.90 4.20 4.39 4.57 4.21 3.84 3.56 3.29 3.10 3.15 3.21 3.43 3.55 3.87 3.81 3.82 3.70 3.82 3.85 3.85 4.28 4.25 3.99 4.05
0.06 0.12 0.22 0.21 0.20 0.27 0.40 0.60 0.79 0.89 1.12 1.44 1.64 1.63 1.61 1.93 2.39 2.76 3.06 3.17 3.50 3.70 3.87 3.89 4.14 4.58 4.93 4.77 4.45 4.29 4.06 3.83 3.60 3.32 3.23 3.30 3.29 3.47 3.84 3.68 3.97 3.89 3.74 3.69 3.65 4.00 4.11 3.82 4.02
0.04 0.10 0.19 0.21 0.21 0.33 0.50 0.73 0.89 1.10 1.36 1.49 1.41 1.39 1.54 1.93 2.44 2.82 3.08 3.21 3.47 3.74 4.16 4.29 4.50 4.90 5.05 4.90 4.78 4.64 4.51 4.10 3.98 3.83 3.68 3.31 3.13 3.25 3.28 3.63 3.47 3.56 3.73 3.62 3.74 4.05 3.95 3.59 4.07
0.06 0.11 0.18 0.19 0.27 0.44 0.58 1.03 1.19 1.33 1.50 1.51 1.43 1.60 1.62 1.71 2.14 2.42 2.53 2.70 2.87 3.02 3.28 3.57 4.08 4.61 4.83 4.90 4.80 4.75 4.78 4.32 4.08 3.95 3.79 3.42 3.13 3.03 3.16 3.33 3.43 3.50 3.42 3.53 3.74 3.81 3.86 3.78 3.91
0.08 0.10 0.11 0.15 0.27 0.55 0.67 1.32 1.50 1.68 1.82 1.70 1.60 1.53 1.52 1.76 2.08 2.08 1.90 2.05 2.31 2.30 2.61 3.03 3.50 3.88 4.13 4.22 4.23 4.28 4.25 4.17 4.08 3.94 3.58 3.36 3.13 3.01 3.08 3.20 3.29 3.35 3.17 3.33 3.17 3.28 3.77 3.90 3.74
0.07 0.10 0.12 0.17 0.30 0.55 0.61 1.00 1.52 1.88 2.07 1.69 1.58 1.44 1.51 1.74 1.77 1.72 1.72 1.83 1.98 2.14 2.46 2.77 3.11 3.41 3.59 3.69 3.78 3.90 3.79 3.83 3.72 3.55 3.36 3.17 3.01 2.87 2.67 2.81 3.05 3.13 3.00 2.94 2.98 3.23 3.34 3.30 3.33
0.07 0.13 0.21 0.29 0.50 0.91 0.77 0.89 1.43 1.80 1.65 1.45 1.39 1.18 1.30 1.48 1.56 1.60 1.69 1.80 1.92 2.22 2.58 2.87 3.12 3.35 3.42 3.21 3.11 3.16 3.22 3.28 3.23 3.09 2.92 2.72 2.68 2.60 2.45 2.51 2.78 2.89 2.83 2.79 2.80 2.91 2.94 2.97 3.00
0.11 0.24 0.71 1.13 1.46 1.35 0.84 0.95 1.55 1.43 1.10 1.02 1.11 1.11 1.11 1.14 1.28 1.38 1.56 1.76 1.93 2.05 2.15 2.59 3.02 3.20 3.10 2.85 2.67 2.60 2.75 2.87 2.81 2.70 2.63 2.54 2.43 2.38 2.39 2.41 2.56 2.59 2.54 2.49 2.58 2.66 2.71 2.89 2.98
0.16 0.27 0.78 1.09 1.19 1.16 0.95 1.35 1.84 1.43 0.99 0.84 0.94 0.94 0.83 0.79 0.76 0.84 1.01 1.13 1.28 1.33 1.35 1.53 1.81 2.05 2.13 2.03 2.05 2.12 2.17 2.25 2.26 2.46 2.31 2.30 2.24 2.15 2.20 2.19 2.19 2.22 2.21 2.19 2.53 2.57 2.67 2.86 2.95
0.26 0.31 0.33 0.56 0.78 1.18 1.20 1.42 1.52 1.25 0.97 0.93 1.00 0.92 0.74 0.69 0.66 0.73 0.83 0.89 0.97 1.00 1.05 1.19 1.43 1.67 1.72 1.73 1.79 1.83 1.85 1.91 1.94 2.01 1.97 1.94 2.01 1.98 1.99 1.99 2.13 2.12 2.18 2.31 2.51 2.51 2.59 2.85 2.89
0.22 0.30 0.46 0.74 0.99 1.15 1.26 1.63 1.80 1.60 1.33 1.14 1.08 0.96 0.75 0.63 0.62 0.70 0.80 0.84 0.93 1.04 1.20 1.32 1.43 1.53 1.53 1.53 1.54 1.50 1.60 1.63 1.69 1.69 1.64 1.66 1.74 1.77 1.80 1.86 1.95 2.02 2.08 2.21 2.42 2.41 2.49 2.65 2.70
0.26 0.34 0.50 0.68 0.75 0.97 1.38 1.55 1.31 1.26 1.24 1.30 1.25 1.04 0.81 0.64 0.59 0.66 0.79 0.83 0.89 1.01 1.15 1.30 1.40 1.50 1.47 1.42 1.49 1.54 1.56 1.61 1.59 1.57 1.50 1.57 1.65 1.70 1.72 1.81 1.92 1.96 2.01 2.18 2.34 2.31 2.40 2.40 2.41
0.25 0.35 0.51 0.77 0.82 0.85 1.03 1.23 0.86 0.86 0.96 1.05 1.06 0.85 0.67 0.61 0.61 0.68 0.79 0.84 0.97 1.04 1.11 1.14 1.26 1.39 1.40 1.41 1.53 1.73 1.71 1.72 1.68 1.55 1.49 1.55 1.56 1.60 1.64 1.75 1.84 1.84 1.96 2.17 2.26 2.25 2.40 2.46 2.44